Regional Weather Roundup
Issued by NWS

Home | Current Version | Previous Version | Graphics & Text | Print | Product List | Glossary On
Versions: 1 2 3 4 5 6 7 8 9 10 11 12 13 14 15 16 17 18 19 20 21 22 23 24 25 26 27 28 29 30 31 32 33 34 35 36 37 38 39 40 41 42 43 44 45 46 47 48 49 50
000
ASUS43 KFSD 200610
RWRSD

WEATHER ROUNDUP FOR SOUTH DAKOTA
NATIONAL WEATHER SERVICE SIOUX FALLS SD
100 AM CDT WED AUG 20 2014

NOTE: "FAIR" INDICATES FEW OR NO CLOUDS BELOW 12,000 FEET WITH NO
SIGNIFICANT WEATHER AND/OR OBSTRUCTIONS TO VISIBILITY.


SDZ001>005-009-010-012>017-200700-
NORTHWEST AND NORTH CENTRAL SOUTH DAKOTA

CITY           SKY/WX    TMP DP  RH WIND       PRES   REMARKS
BUFFALO          N/A     73  58  59 SE18      29.65F
FAITH            N/A     72  61  68 SE13      29.72F
MOBRIDGE       CLEAR     69  63  81 SE10      29.71F
$$

SDZ012>016-024>037-041>051-057-063-072>074-200700-
SOUTHWEST AND SOUTH CENTRAL SOUTH DAKOTA

CITY           SKY/WX    TMP DP  RH WIND       PRES   REMARKS
RAPID CTY ARPT CLOUDY    68  61  78 S5        29.75S
PIERRE         TSTM      71  66  84 S15       29.72F
CUSTER         CLOUDY    67  54  63 E7        29.90S
ELLSWORTH AFB  CLOUDY    71  61  70 S8        29.74F
PHILIP         PTCLDY    71  62  73 E9        29.68F
PINE RIDGE     CLOUDY    73  54  51 E14       29.78R
WINNER         FAIR      74  66  76 SE14      29.75F
$$

SDZ004>011-016>023-039-040-200700-
NORTHEAST SOUTH DAKOTA

CITY           SKY/WX    TMP DP  RH WIND       PRES   REMARKS
ABERDEEN       CLEAR     63  62  97 SE8       29.77S
WATERTOWN      FAIR      66  61  84 S3        29.82R
SISSETON         N/A     64  64 100 SW3       29.78S
$$

SDZ017-020-022-023-036>040-048>070-200700-
SOUTHEAST SOUTH DAKOTA

CITY           SKY/WX    TMP DP  RH WIND       PRES   REMARKS
SIOUX FALLS    FAIR      67  63  87 CALM      29.82R
HURON          PTCLDY    67  62  84 SE8       29.76F
CHAMBERLAIN    CLOUDY    67  64  91 SE7       29.75F
MITCHELL       MOCLDY    68  63  84 SE7       29.78F
YANKTON        FAIR      68  64  88 E5        29.79F
$$

ABBREVIATIONS USED IN REMARKS
   TC - TEMPERATURE IN CELSIUS
  WCI - WIND CHILL INDEX
   HX - HEAT INDEX
  VSB - VISIBILITY



USA.gov is the U.S. government's official web portal to all federal, state and local government web resources and services.